N35542 KBHM-KBHM

Flight info

Callsign N35542
Flight time 0h 9m
Altitude VFR
Route PATTERN
Aircraft C172/L-DOV/C

Departure

Time 2026-04-25 01:00
Airport Birmingham-Shuttlesworth International Airport (KBHM)

Arrival

Time 2026-04-25 01:09
Airport Birmingham-Shuttlesworth International Airport (KBHM)
Time Latitude Longitude Altitude Speed Heading
2026-04-25 00:48 33.55677 -86.77307 610 ft 0 kts 54°
2026-04-25 00:49 33.55680 -86.77301 610 ft 4 kts 60°
2026-04-25 00:49 33.55696 -86.77237 611 ft 8 kts 96°
2026-04-25 00:50 33.55656 -86.77204 610 ft 6 kts 186°
2026-04-25 00:50 33.55633 -86.77232 609 ft 6 kts 221°
2026-04-25 00:50 33.55581 -86.77226 608 ft 8 kts 142°
2026-04-25 00:50 33.55523 -86.77175 607 ft 11 kts 147°
2026-04-25 00:51 33.55445 -86.77112 605 ft 14 kts 143°
2026-04-25 00:51 33.55438 -86.77026 604 ft 11 kts 55°
2026-04-25 00:51 33.55486 -86.76942 606 ft 12 kts 57°
2026-04-25 00:51 33.55531 -86.76851 607 ft 10 kts 53°
2026-04-25 00:52 33.55552 -86.76819 607 ft 12 kts 51°
2026-04-25 00:52 33.55554 -86.76815 607 ft 12 kts 51°
2026-04-25 00:52 33.55694 -86.76576 609 ft 16 kts 56°
2026-04-25 00:52 33.55754 -86.76474 610 ft 9 kts 54°
2026-04-25 00:53 33.55790 -86.76411 611 ft 9 kts 62°
2026-04-25 00:53 33.55832 -86.76341 613 ft 10 kts 53°
2026-04-25 00:53 33.55879 -86.76257 613 ft 13 kts 53°
2026-04-25 00:53 33.55936 -86.76160 614 ft 14 kts 55°
2026-04-25 00:54 33.55992 -86.76061 614 ft 13 kts 54°
2026-04-25 00:54 33.56043 -86.75974 614 ft 12 kts 55°
2026-04-25 00:54 33.56088 -86.75889 614 ft 11 kts 57°
2026-04-25 00:54 33.56139 -86.75806 613 ft 11 kts 56°
2026-04-25 00:55 33.56187 -86.75723 612 ft 10 kts 55°
2026-04-25 00:55 33.56226 -86.75655 612 ft 8 kts 54°
2026-04-25 00:55 33.56255 -86.75607 613 ft 6 kts 56°
2026-04-25 00:55 33.56284 -86.75555 614 ft 8 kts 55°
2026-04-25 00:56 33.56331 -86.75474 616 ft 14 kts 55°
2026-04-25 00:56 33.56395 -86.75360 617 ft 17 kts 56°
2026-04-25 00:56 33.56416 -86.75324 618 ft 18 kts 55°
2026-04-25 00:56 33.56538 -86.75111 622 ft 13 kts 56°
2026-04-25 00:57 33.56577 -86.75045 624 ft 6 kts 53°
2026-04-25 00:57 33.56593 -86.75024 624 ft 0 kts 38°
2026-04-25 00:57 33.56595 -86.75022 624 ft 1 kts 35°
2026-04-25 00:58 33.56623 -86.75015 625 ft 6 kts 348°
2026-04-25 00:58 33.56662 -86.75053 626 ft 8 kts 289°
2026-04-25 00:58 33.56650 -86.75122 625 ft 10 kts 236°
2026-04-25 00:58 33.56497 -86.75387 620 ft 60 kts 226°
2026-04-25 00:59 33.56206 -86.75851 735 ft 70 kts 227°
2026-04-25 00:59 33.55889 -86.76357 890 ft 72 kts 225°
2026-04-25 00:59 33.55539 -86.76878 1029 ft 77 kts 224°
2026-04-25 00:59 33.55049 -86.76923 1219 ft 77 kts 140°
2026-04-25 01:00 33.54704 -86.76394 1376 ft 83 kts 99°
2026-04-25 01:00 33.54988 -86.75690 1475 ft 96 kts 50°
2026-04-25 01:00 33.55449 -86.75028 1603 ft 100 kts 50°
2026-04-25 01:00 33.55948 -86.74309 1600 ft 108 kts 50°
2026-04-25 01:01 33.56459 -86.73577 1618 ft 106 kts 51°
2026-04-25 01:01 33.56929 -86.72851 1589 ft 103 kts 53°
2026-04-25 01:01 33.57397 -86.72141 1536 ft 105 kts 46°
2026-04-25 01:01 33.58074 -86.71802 1453 ft 96 kts 351°
2026-04-25 01:02 33.58488 -86.72086 1369 ft 90 kts 298°
2026-04-25 01:02 33.58196 -86.72738 1135 ft 82 kts 211°
2026-04-25 01:02 33.57801 -86.73161 962 ft 72 kts 230°
2026-04-25 01:02 33.57482 -86.73682 792 ft 69 kts 231°
2026-04-25 01:03 33.57192 -86.74178 694 ft 71 kts 230°
2026-04-25 01:03 33.56921 -86.74650 635 ft 54 kts 235°
2026-04-25 01:03 33.56658 -86.75113 667 ft 73 kts 231°
2026-04-25 01:03 33.56464 -86.75463 789 ft 70 kts 230°
2026-04-25 01:04 33.55782 -86.76646 1065 ft 82 kts 232°
2026-04-25 01:04 33.55455 -86.77241 1227 ft 82 kts 232°
2026-04-25 01:04 33.54947 -86.77420 1421 ft 80 kts 160°
2026-04-25 01:05 33.54446 -86.76937 1497 ft 93 kts 136°
2026-04-25 01:05 33.54013 -86.76321 1627 ft 96 kts 123°
2026-04-25 01:05 33.53921 -86.75516 1703 ft 107 kts 81°
2026-04-25 01:05 33.54094 -86.75011 1689 ft 116 kts 59°
2026-04-25 01:06 33.54828 -86.73974 1608 ft 117 kts 47°
2026-04-25 01:06 33.55891 -86.72689 1512 ft 111 kts 43°
2026-04-25 01:06 33.56492 -86.72026 1437 ft 110 kts 43°
2026-04-25 01:07 33.57110 -86.71397 1347 ft 106 kts 26°
2026-04-25 01:07 33.57140 -86.71379 1345 ft 106 kts 23°
2026-04-25 01:07 33.58197 -86.71855 1198 ft 85 kts 300°
2026-04-25 01:07 33.58139 -86.72504 1126 ft 80 kts 238°
2026-04-25 01:08 33.57809 -86.73102 1006 ft 86 kts 229°
2026-04-25 01:08 33.57669 -86.73344 965 ft 84 kts 232°
2026-04-25 01:08 33.57307 -86.73975 767 ft 84 kts 231°
2026-04-25 01:08 33.56907 -86.74681 635 ft 54 kts 231°
2026-04-25 01:09 33.56726 -86.74994 628 ft 34 kts 232°
2026-04-25 01:09 33.56599 -86.75217 623 ft 29 kts 233°
2026-04-25 01:09 33.56483 -86.75414 619 ft 25 kts 235°
2026-04-25 01:09 33.56382 -86.75592 619 ft 20 kts 233°
2026-04-25 01:10 33.56345 -86.75687 617 ft 12 kts 266°
2026-04-25 01:10 33.56349 -86.75700 618 ft 3 kts 334°
2026-04-25 01:10 33.56372 -86.75935 628 ft 11 kts 245°